This is the latest recevied weather packets stored in our database for station/object OK2ILA-6. If no packets are shown the sender has not sent any weather packets the latest 10 day(s).
| Time | Temp. | Humidity | Pressure | Rain* | Wind** | Luminosity | Snow |
|---|---|---|---|---|---|---|---|
| 1777711203 | 22.22° C | 36% | 1024.4 hPa | - | - | - | - |
| 1777710603 | 21.11° C | 40% | 1024.5 hPa | - | - | - | - |
| 1777710003 | 21.11° C | 39% | 1024.6 hPa | - | - | - | - |
| 1777709402 | 21.11° C | 42% | 1024.6 hPa | - | - | - | - |
| 1777708803 | 20° C | 44% | 1024.6 hPa | - | - | - | - |
| 1777708203 | 20° C | 44% | 1024.7 hPa | - | - | - | - |
| 1777707603 | 20° C | 44% | 1024.7 hPa | - | - | - | - |
| 1777707003 | 18.89° C | 46% | 1024.8 hPa | - | - | - | - |
| 1777706403 | 18.89° C | 48% | 1024.8 hPa | - | - | - | - |
| 1777705803 | 17.78° C | 49% | 1024.8 hPa | - | - | - | - |
| 1777705203 | 17.22° C | 51% | 1024.8 hPa | - | - | - | - |
| 1777704603 | 16.67° C | 56% | 1024.7 hPa | - | - | - | - |
| 1777704003 | 15.56° C | 60% | 1024.6 hPa | - | - | - | - |
| 1777703402 | 14.44° C | 64% | 1024.8 hPa | - | - | - | - |
| 1777702803 | 13.89° C | 66% | 1024.8 hPa | - | - | - | - |
| 1777702203 | 13.33° C | 68% | 1024.8 hPa | - | - | - | - |
| 1777701603 | 12.22° C | 70% | 1024.6 hPa | - | - | - | - |
| 1777701003 | 11.11° C | 72% | 1024.6 hPa | - | - | - | - |
| 1777700402 | 10° C | 74% | 1024.8 hPa | - | - | - | - |
| 1777699803 | 9.44° C | 77% | 1024.8 hPa | - | - | - | - |
| 1777699203 | 8.89° C | 80% | 1024.7 hPa | - | - | - | - |
| 1777698603 | 7.78° C | 82% | 1024.8 hPa | - | - | - | - |
| 1777698003 | 7.22° C | 84% | 1024.7 hPa | - | - | - | - |
| 1777697402 | 6.67° C | 84% | 1024.6 hPa | - | - | - | - |
| 1777696803 | 6.67° C | 86% | 1024.6 hPa | - | - | - | - |
* Rain since midnight (hover to see other rain measurements)
** Current wind speed in m/s (hover to see current wind gust speed)